[Iaude] MPEC A43: 2019 AS [a=1.36,e=0.23,i=1.7,H=26.6]

mpec at mpcdb1.cfa.harvard.edu mpec at mpcdb1.cfa.harvard.edu
Fri Jan 4 11:35:16 EST 2019


M.P.E.C. 2019-A43                                Issued 2019 Jan. 4, 16:32 UT
 
     The Minor Planet Electronic Circulars contain information on unusual
         minor planets and routine data on comets.  They are published
    on behalf of Division F of the International Astronomical Union by the
          Minor Planet Center, Smithsonian Astrophysical Observatory,
                          Cambridge, MA 02138, U.S.A.

             Prepared using the Tamkin Foundation Computer Network

                              MPC at CFA.HARVARD.EDU
            URL https://www.minorplanetcenter.net/    ISSN 1523-6714


                                    2019 AS
 
Observations:
     K19A00S* C2019 01 02.52123 07 11 54.667+34 07 58.27         21.6 wUEA043F51
     K19A00S  C2019 01 02.53224 07 11 57.211+34 07 30.03         21.2 wUEA043F51
     K19A00S  C2019 01 02.54330 07 11 59.772+34 07 01.29         21.3 wUEA043F51
     K19A00S  C2019 01 02.55432 07 12 02.374+34 06 32.26         21.6 wUEA043F51
     K19A00S  C2019 01 03.12477 07 14 47.79 +33 42 38.0          21.3 VSEA043033
     K19A00S  C2019 01 03.12833 07 14 48.69 +33 42 28.8          21.1 VSEA043033
     K19A00S  C2019 01 03.13191 07 14 49.62 +33 42 19.3          21.0 VSEA043033
     K19A00S  C2019 01 03.13905 07 14 51.45 +33 42 01.0          21.3 VSEA043033
     K19A00S ^C2019 01 03.34824207 16 02.642+33 35 07.70         21.25GVEA043568
     K19A00S ^C2019 01 03.34925307 16 02.870+33 35 05.57         21.29GVEA043568
     K19A00S ^C2019 01 03.35026007 16 03.104+33 35 03.44         21.41GVEA043568
     K19A00S KC2019 01 04.50196 07 21 08.18 +32 47 47.6          21.2 RoEA043291
     K19A00S KC2019 01 04.50416 07 21 08.68 +32 47 41.4          21.3 RoEA043291
 
Observer details:
033 Karl Schwarzschild Observatory, Tautenburg.  Observers U. Laux,
    B. Stecklum.  Measurer B. Stecklum.  1.34-m f/3 Schmidt + CCD.
291 LPL/Spacewatch II.  Observer J. V. Scotti.  1.8-m f/2.7 reflector + CCD.
568 Mauna Kea.  Observers R. Wainscoat, C. Wipper, T. Burdullis.  Measurers
    R. Weryk, R. Wainscoat.  3.6-m Canada-France-Hawaii Telescope + CCD.
F51 Pan-STARRS 1, Haleakala.  Observers J. Bulger, T. Lowe, A. Schultz,
    M. Willman.  Measurers K. Chambers, S. Chastel, L. Denneau, J. Fairlamb,
    H. Flewelling, M. Huber, C.-C. Lin, E. Magnier, Y. Ramanjooloo,
    R. Wainscoat, R. Weryk.  1.8-m Ritchey-Chretien + CCD.
 
Orbital elements:
2019 AS                                                  Earth MOID = 0.0615 AU
Epoch 2019 Apr. 27.0 TT = JDT 2458600.5                 MPC
M  75.08055              (2000.0)            P               Q
n   0.62139746     Peri.  149.27302     -0.09147904     -0.99553037
a   1.3600548      Node   305.96567     +0.90764013     -0.07366038
e   0.2332979      Incl.    1.66174     +0.40965959     -0.05910527
P   1.59           H   26.6           G   0.15           U   6
Residuals in seconds of arc
190102 F51  0.0   0.0     190103 033 (5.6+  4.5-)   190103 568  0.0   0.0
190102 F51  0.1+  0.0     190103 033 (5.7+  4.5-)   190104 291  0.2+  0.0
190102 F51  0.1-  0.0     190103 033 (5.5+  4.0-)   190104 291  0.3-  0.0
190102 F51  0.1+  0.1-    190103 568  0.0   0.0
190103 033 (5.8+  4.6-)   190103 568  0.0   0.0

Ephemeris:
2019 AS                  a,e,i = 1.36, 0.23, 2                   q = 1.0428
Date    TT    R. A. (2000) Decl.     Delta      r     Elong.  Phase     V
2018 12 05    04 40 53.9 +41 16 48   0.07597 1.0577   161.0    17.7    22.0
...
2018 12 20    05 56 53.6 +40 43 50   0.06298 1.0441   162.6    16.3    21.6
...
2018 12 28    06 43 10.4 +37 26 49   0.06103 1.0426   165.4    13.8    21.4
...
2019 01 03    07 14 17.0 +33 48 41   0.06201 1.0440   168.1    11.2    21.4
2019 01 04    07 18 58.5 +33 08 41   0.06238 1.0445   168.6    10.8    21.3
2019 01 05    07 23 30.8 +32 28 04   0.06282 1.0450   169.0    10.3    21.3
...
2019 01 11    07 47 29.4 +28 19 45   0.06671 1.0495   172.1     7.4    21.4
...
2019 01 19    08 11 28.9 +23 10 29   0.07519 1.0589   176.5     3.3    21.4
...
2019 02 03    08 38 48.1 +16 10 50   0.1008  1.0859   173.9     5.6    22.2

A. U. Tomatic                (C) Copyright 2019 MPC           M.P.E.C. 2019-A43



More information about the Iaude mailing list